Location: Czu?�w
(50.1404°N, 18.9919°E)
Time: 10:56:12
(UTC+00:00)

NOSS 3-3 (A) - Pass Details

Date: 27 October 2020
Orbit: 826 x 1387 km, 63.4° (Epoch: 22 November)

Event Time Altitude Azimuth Distance (km) Brightness Sun altitude
Rises 17:44:23 0° 209° (SSW) 3,420 7.2 -22.3°
Reaches altitude 10° 17:46:45 10° 206° (SSW) 2,530 6.4 -22.6°
Maximum altitude 17:52:32 65° 126° (SE) 1,041 3.8 -23.6°
Enters shadow 17:54:20 46° 66° (ENE) 1,291 4.2 -23.8°
